Tracking 19817 objects as of 21-Aug-2019
HD Live streaming from Space Station
objects crossing your sky now

SL-12 R/B(AUX MOTOR)

Track SL-12 R/B(AUX MOTOR) now!
10-day predictions


NORAD ID: 19170
Int'l Code: 1988-043H
Perigee: 532.8 km
Apogee: 18,923.5 km
Inclination: 65.0 °
Period: 338.8 minutes
Semi major axis: 16099 km
RCS: 0.7038 m2 (medium)
Launch date: May 21, 1988
Source: Commonwealth of Independent States (former USSR) (CIS)
Launch site: TYURATAM MISSILE AND SPACE COMPLEX (TTMTR)

Note: This is a ROCKET BODY
aabbcc
Your satellite tracking list
Your tracking list is empty




NASA's NSSDC Master Catalog

Two Line Element Set (TLE):
1 19170U 88043H   19231.86261339  .00000006  00000-0  17856-4 0  9992
2 19170  64.9608  83.7255 5711697 152.5324 255.4016  4.25009905484093
Source of the keplerian elements: AFSPC